Location: Unspecified
(50.7693°N, 0.0000°E)
Time: 04:24:55
(UTC+00:00)

Transit 2A Rocket - Pass Details

Date: 17 June 2019
Orbit: 588 x 915 km, 66.7° (Epoch: 17 July)

Event Time Altitude Azimuth Distance (km) Brightness Sun altitude
Rises 20:59:12 0° 315° (NW) 3,321 11.1 -5.7°
Reaches altitude 10° 21:02:11 10° 301° (WNW) 2,324 8.9 -6.0°
Maximum altitude 21:06:09 22° 252° (WSW) 1,572 6.9 -6.4°
Drops below altitude 10° 21:09:52 10° 203° (SSW) 2,145 7.1 -6.8°
Sets 21:12:31 0° 187° (S) 2,999 7.7 -7.1°
